Time,TemperatureF,DewpointF,PressureIn,WindDirection,WindDirectionDegrees,WindSpeedMPH,WindSpeedGustMPH,Humidity,HourlyPrecipIn,Conditions,Clouds,dailyrainin,SoftwareType,DateUTC
2013-03-12 00:02:00,21.0,21.0,-100.00,WNW,284,6.0,7.0,100,0.00,,,-99.99,,2013-03-12 06:02:00,
2013-03-12 00:12:00,21.0,21.0,-100.00,NW,304,5.0,7.0,100,0.00,,,-99.99,,2013-03-12 06:12:00,
2013-03-12 00:22:00,21.0,21.0,-100.00,NW,320,5.0,8.0,100,0.00,,,-99.99,,2013-03-12 06:22:00,
2013-03-12 00:32:00,21.0,21.0,-100.00,NW,319,6.0,9.0,100,0.00,,,-99.99,,2013-03-12 06:32:00,
2013-03-12 00:42:00,20.0,20.0,-100.00,NW,316,6.0,7.0,100,0.00,,,-99.99,,2013-03-12 06:42:00,
2013-03-12 00:52:00,20.0,19.0,-100.00,WNW,292,5.0,7.0,99,0.00,,,-99.99,,2013-03-12 06:52:00,
2013-03-12 01:02:00,21.0,21.0,-100.00,WNW,285,7.0,13.0,100,0.00,,,-99.99,,2013-03-12 07:02:00,
2013-03-12 01:12:00,22.0,22.0,-100.00,WNW,285,9.0,13.0,99,0.00,,,-99.99,,2013-03-12 07:12:00,
2013-03-12 01:22:00,21.0,20.0,-100.00,WNW,302,10.0,14.0,99,0.00,,,-99.99,,2013-03-12 07:22:00,
2013-03-12 01:32:00,20.0,20.0,-100.00,WNW,301,10.0,12.0,98,0.00,,,-99.99,,2013-03-12 07:32:00,
2013-03-12 01:42:00,20.0,20.0,-100.00,WNW,296,9.0,12.0,98,0.00,,,-99.99,,2013-03-12 07:42:00,
2013-03-12 01:52:00,19.0,19.0,-100.00,NW,305,9.0,11.0,98,0.00,,,-99.99,,2013-03-12 07:52:00,
2013-03-12 02:02:00,20.0,19.0,-100.00,NW,305,9.0,11.0,98,0.00,,,-99.99,,2013-03-12 08:02:00,
2013-03-12 02:12:00,19.0,19.0,-100.00,NW,304,10.0,11.0,98,0.00,,,-99.99,,2013-03-12 08:12:00,
2013-03-12 02:22:00,20.0,19.0,-100.00,WNW,289,7.0,10.0,98,0.00,,,-99.99,,2013-03-12 08:22:00,
2013-03-12 02:33:00,20.0,20.0,-100.00,WNW,289,8.0,11.0,98,0.00,,,-99.99,,2013-03-12 08:33:00,
2013-03-12 02:42:00,20.0,20.0,-100.00,WNW,292,9.0,12.0,98,0.00,,,-99.99,,2013-03-12 08:42:00,
2013-03-12 02:52:00,20.0,20.0,-100.00,WNW,298,10.0,14.0,98,0.00,,,-99.99,,2013-03-12 08:52:00,
2013-03-12 03:03:00,20.0,20.0,-100.00,NW,306,12.0,16.0,98,0.00,,,-99.99,,2013-03-12 09:03:00,
2013-03-12 03:12:00,20.0,20.0,-100.00,NW,305,12.0,17.0,98,0.00,,,-99.99,,2013-03-12 09:12:00,
2013-03-12 03:22:00,19.0,19.0,-100.00,NW,306,14.0,17.0,99,0.00,,,-99.99,,2013-03-12 09:22:00,
2013-03-12 03:32:00,19.0,19.0,-100.00,NW,304,13.0,17.0,100,0.00,,,-99.99,,2013-03-12 09:32:00,
2013-03-12 03:42:00,19.0,19.0,-100.00,WNW,298,12.0,16.0,100,0.00,,,-99.99,,2013-03-12 09:42:00,
2013-03-12 03:52:00,19.0,19.0,-100.00,WNW,294,10.0,12.0,100,0.00,,,-99.99,,2013-03-12 09:52:00,
2013-03-12 04:02:00,19.0,19.0,-100.00,WNW,288,11.0,14.0,100,0.00,,,-99.99,,2013-03-12 10:02:00,
2013-03-12 04:12:00,19.0,19.0,-100.00,WNW,289,11.0,14.0,100,0.00,,,-99.99,,2013-03-12 10:12:00,
2013-03-12 04:22:00,19.0,19.0,-100.00,WNW,294,12.0,15.0,99,0.00,,,-99.99,,2013-03-12 10:22:00,
2013-03-12 04:32:00,19.0,18.0,-100.00,WNW,295,12.0,14.0,99,0.00,,,-99.99,,2013-03-12 10:32:00,
2013-03-12 04:42:00,18.0,18.0,-100.00,WNW,291,11.0,14.0,99,0.00,,,-99.99,,2013-03-12 10:42:00,
2013-03-12 04:52:00,18.0,18.0,-100.00,WNW,288,11.0,13.0,99,0.00,,,-99.99,,2013-03-12 10:52:00,
2013-03-12 05:02:00,18.0,18.0,-100.00,WNW,289,12.0,17.0,99,0.00,,,-99.99,,2013-03-12 11:02:00,
2013-03-12 05:12:00,18.0,18.0,-100.00,WNW,292,12.0,17.0,99,0.00,,,-99.99,,2013-03-12 11:12:00,
2013-03-12 05:22:00,18.0,18.0,-100.00,WNW,292,12.0,16.0,99,0.00,,,-99.99,,2013-03-12 11:22:00,
2013-03-12 05:32:00,18.0,18.0,-100.00,WNW,296,12.0,17.0,99,0.00,,,-99.99,,2013-03-12 11:32:00,
2013-03-12 05:42:00,18.0,18.0,-100.00,WNW,296,12.0,17.0,99,0.00,,,-99.99,,2013-03-12 11:42:00,
2013-03-12 05:52:00,18.0,18.0,-100.00,WNW,298,12.0,17.0,99,0.00,,,-99.99,,2013-03-12 11:52:00,
2013-03-12 06:02:00,18.0,18.0,-100.00,WNW,298,12.0,17.0,99,0.00,,,-99.99,,2013-03-12 12:02:00,
2013-03-12 06:12:00,18.0,18.0,-100.00,WNW,296,12.0,15.0,99,0.00,,,-99.99,,2013-03-12 12:12:00,
2013-03-12 06:22:00,18.0,18.0,-100.00,WNW,298,12.0,15.0,99,0.00,,,-99.99,,2013-03-12 12:22:00,
2013-03-12 06:32:00,18.0,18.0,-100.00,WNW,302,12.0,16.0,99,0.00,,,-99.99,,2013-03-12 12:32:00,
2013-03-12 06:42:00,18.0,18.0,-100.00,WNW,301,12.0,16.0,99,0.00,,,-99.99,,2013-03-12 12:42:00,
2013-03-12 06:52:00,18.0,18.0,-100.00,NW,305,11.0,14.0,99,0.00,,,-99.99,,2013-03-12 12:52:00,
2013-03-12 07:02:00,18.0,17.0,-100.00,NW,316,12.0,15.0,99,0.00,,,-99.99,,2013-03-12 13:02:00,
2013-03-12 07:12:00,18.0,17.0,-100.00,NW,319,12.0,16.0,99,0.00,,,-99.99,,2013-03-12 13:12:00,
2013-03-12 07:22:00,17.0,17.0,-100.00,NW,316,12.0,15.0,99,0.00,,,-99.99,,2013-03-12 13:22:00,
2013-03-12 07:32:00,17.0,17.0,-100.00,NW,320,11.0,16.0,99,0.00,,,-99.99,,2013-03-12 13:32:00,
2013-03-12 07:42:00,17.0,16.0,-100.00,NW,312,11.0,14.0,98,0.00,,,-99.99,,2013-03-12 13:42:00,
2013-03-12 07:52:00,17.0,17.0,-100.00,NW,309,9.0,12.0,99,0.00,,,-99.99,,2013-03-12 13:52:00,
2013-03-12 08:02:00,17.0,17.0,-100.00,NW,316,9.0,14.0,99,0.00,,,-99.99,,2013-03-12 14:02:00,
2013-03-12 08:12:00,17.0,17.0,-100.00,NW,319,11.0,14.0,98,0.00,,,-99.99,,2013-03-12 14:12:00,
2013-03-12 08:22:00,17.0,16.0,-100.00,NW,323,10.0,14.0,98,0.00,,,-99.99,,2013-03-12 14:22:00,
2013-03-12 08:32:00,17.0,16.0,-100.00,NNW,328,11.0,16.0,98,0.00,,,-99.99,,2013-03-12 14:32:00,
2013-03-12 08:42:00,17.0,17.0,-100.00,WNW,302,9.0,13.0,99,0.00,,,-99.99,,2013-03-12 14:42:00,
2013-03-12 08:52:00,18.0,17.0,-100.00,NW,309,9.0,14.0,99,0.00,,,-99.99,,2013-03-12 14:52:00,
2013-03-12 09:02:00,19.0,19.0,-100.00,NW,312,10.0,14.0,100,0.00,,,-99.99,,2013-03-12 15:02:00,
2013-03-12 09:12:00,21.0,21.0,-100.00,NW,305,11.0,17.0,100,0.00,,,-99.99,,2013-03-12 15:12:00,
2013-03-12 09:22:00,25.0,23.0,-100.00,West,277,16.0,24.0,92,0.00,,,-99.99,,2013-03-12 15:22:00,
2013-03-12 09:32:00,26.0,23.0,-100.00,West,281,17.0,26.0,89,0.00,,,-99.99,,2013-03-12 15:32:00,
2013-03-12 09:42:00,26.0,23.0,-100.00,West,272,16.0,22.0,86,0.00,,,-99.99,,2013-03-12 15:42:00,
2013-03-12 09:52:00,27.0,23.0,-100.00,West,274,16.0,22.0,85,0.00,,,-99.99,,2013-03-12 15:52:00,
2013-03-12 10:02:00,27.0,22.0,-100.00,West,275,14.0,21.0,82,0.00,,,-99.99,,2013-03-12 16:02:00,
2013-03-12 10:12:00,27.0,22.0,-100.00,West,275,14.0,23.0,79,0.00,,,-99.99,,2013-03-12 16:12:00,
2013-03-12 10:22:00,28.0,22.0,-100.00,West,274,17.0,23.0,77,0.00,,,-99.99,,2013-03-12 16:22:00,
2013-03-12 10:33:00,28.0,21.0,-100.00,West,271,18.0,27.0,76,0.00,,,-99.99,,2013-03-12 16:33:00,
2013-03-12 10:42:00,28.0,21.0,-100.00,West,272,17.0,24.0,75,0.00,,,-99.99,,2013-03-12 16:42:00,
2013-03-12 10:52:00,29.0,21.0,-100.00,West,275,16.0,24.0,74,0.00,,,-99.99,,2013-03-12 16:52:00,
2013-03-12 11:02:00,28.0,21.0,-100.00,West,268,19.0,28.0,75,0.00,,,-99.99,,2013-03-12 17:02:00,
2013-03-12 11:12:00,29.0,22.0,-100.00,West,272,18.0,28.0,74,0.00,,,-99.99,,2013-03-12 17:12:00,
2013-03-12 11:22:00,29.0,22.0,-100.00,West,275,17.0,25.0,74,0.00,,,-99.99,,2013-03-12 17:22:00,
2013-03-12 11:33:00,30.0,22.0,-100.00,West,275,20.0,29.0,74,0.00,,,-99.99,,2013-03-12 17:33:00,
2013-03-12 11:43:00,30.0,22.0,-100.00,West,275,22.0,32.0,73,0.00,,,-99.99,,2013-03-12 17:43:00,
2013-03-12 11:53:00,29.0,22.0,-100.00,West,275,23.0,32.0,74,0.00,,,-99.99,,2013-03-12 17:53:00,
2013-03-12 12:02:00,30.0,22.0,-100.00,West,278,22.0,29.0,74,0.00,,,-99.99,,2013-03-12 18:02:00,
2013-03-12 12:12:00,29.0,22.0,-100.00,West,277,24.0,33.0,75,0.00,,,-99.99,,2013-03-12 18:12:00,
2013-03-12 12:22:00,30.0,23.0,-100.00,West,280,22.0,32.0,74,0.00,,,-99.99,,2013-03-12 18:22:00,
2013-03-12 12:33:00,31.0,23.0,-100.00,WNW,285,22.0,30.0,74,0.00,,,-99.99,,2013-03-12 18:33:00,
2013-03-12 12:42:00,31.0,23.0,-100.00,WNW,282,22.0,32.0,73,0.00,,,-99.99,,2013-03-12 18:42:00,
2013-03-12 12:53:00,31.0,23.0,-100.00,West,280,23.0,39.0,70,0.00,,,-99.99,,2013-03-12 18:53:00,
2013-03-12 13:03:00,32.0,23.0,-100.00,West,274,21.0,32.0,69,0.00,,,-99.99,,2013-03-12 19:03:00,
2013-03-12 13:13:00,32.0,23.0,-100.00,West,274,22.0,32.0,70,0.00,,,-99.99,,2013-03-12 19:13:00,
2013-03-12 13:22:00,31.0,26.0,-100.00,West,270,27.0,38.0,81,0.00,,,-99.99,,2013-03-12 19:22:00,
2013-03-12 13:33:00,32.0,25.0,-100.00,West,274,22.0,32.0,76,0.00,,,-99.99,,2013-03-12 19:33:00,
2013-03-12 13:43:00,31.0,26.0,-100.00,West,275,23.0,35.0,80,0.01,,,-99.99,,2013-03-12 19:43:00,
2013-03-12 13:53:00,32.0,25.0,-100.00,West,281,24.0,34.0,75,0.00,,,-99.99,,2013-03-12 19:53:00,
2013-03-12 14:02:00,32.0,26.0,-100.00,West,281,26.0,34.0,80,0.01,,,-99.99,,2013-03-12 20:02:00,
2013-03-12 14:12:00,31.0,26.0,-100.00,West,278,24.0,33.0,81,0.00,,,-99.99,,2013-03-12 20:12:00,
2013-03-12 14:22:00,32.0,26.0,-100.00,West,280,27.0,35.0,80,0.00,,,-99.99,,2013-03-12 20:22:00,
2013-03-12 14:32:00,32.0,26.0,-100.00,West,275,25.0,36.0,78,0.00,,,-99.99,,2013-03-12 20:32:00,
2013-03-12 14:42:00,32.0,26.0,-100.00,West,277,24.0,35.0,77,0.00,,,-99.99,,2013-03-12 20:42:00,
2013-03-12 14:52:00,32.0,26.0,-100.00,West,275,24.0,35.0,76,0.00,,,-99.99,,2013-03-12 20:52:00,
2013-03-12 15:02:00,33.0,26.0,-100.00,West,275,27.0,40.0,77,0.00,,,-99.99,,2013-03-12 21:02:00,
2013-03-12 15:12:00,32.0,26.0,-100.00,West,271,26.0,40.0,78,0.00,,,-99.99,,2013-03-12 21:12:00,
2013-03-12 15:22:00,33.0,26.0,-100.00,West,270,29.0,42.0,75,0.00,,,-99.99,,2013-03-12 21:22:00,
2013-03-12 15:32:00,33.0,26.0,-100.00,West,271,29.0,38.0,75,0.00,,,-99.99,,2013-03-12 21:32:00,
2013-03-12 15:43:00,33.0,27.0,-100.00,West,271,28.0,40.0,76,0.00,,,-99.99,,2013-03-12 21:43:00,
2013-03-12 15:52:00,34.0,26.0,-100.00,West,268,30.0,38.0,74,0.00,,,-99.99,,2013-03-12 21:52:00,
2013-03-12 16:02:00,35.0,25.0,-100.00,West,268,28.0,37.0,69,0.00,,,-99.99,,2013-03-12 22:02:00,
2013-03-12 16:12:00,34.0,26.0,-100.00,West,271,29.0,39.0,71,0.00,,,-99.99,,2013-03-12 22:12:00,
2013-03-12 16:22:00,34.0,26.0,-100.00,West,267,29.0,40.0,72,0.00,,,-99.99,,2013-03-12 22:22:00,
2013-03-12 16:33:00,34.0,27.0,-100.00,West,265,30.0,38.0,76,0.00,,,-99.99,,2013-03-12 22:33:00,
2013-03-12 16:42:00,34.0,27.0,-100.00,West,271,29.0,39.0,75,0.00,,,-99.99,,2013-03-12 22:42:00,
2013-03-12 16:52:00,35.0,27.0,-100.00,West,267,29.0,39.0,72,0.00,,,-99.99,,2013-03-12 22:52:00,
2013-03-12 17:02:00,34.0,26.0,-100.00,West,265,29.0,41.0,73,0.00,,,-99.99,,2013-03-12 23:02:00,
2013-03-12 17:12:00,35.0,26.0,-100.00,West,267,29.0,41.0,72,0.00,,,-99.99,,2013-03-12 23:12:00,
2013-03-12 17:22:00,35.0,26.0,-100.00,West,265,29.0,40.0,70,0.00,,,-99.99,,2013-03-12 23:22:00,
2013-03-12 17:34:00,35.0,26.0,-100.00,West,271,27.0,39.0,71,0.00,,,-99.99,,2013-03-12 23:34:00,
2013-03-12 17:43:00,35.0,27.0,-100.00,West,270,26.0,41.0,71,0.00,,,-99.99,,2013-03-12 23:43:00,
2013-03-12 17:52:00,35.0,27.0,-100.00,West,265,29.0,39.0,70,0.00,,,-99.99,,2013-03-12 23:52:00,
2013-03-12 18:02:00,35.0,27.0,-100.00,West,264,31.0,40.0,73,0.00,,,-99.99,,2013-03-13 00:02:00,
2013-03-12 18:12:00,35.0,27.0,-100.00,West,264,31.0,41.0,72,0.00,,,-99.99,,2013-03-13 00:12:00,
2013-03-12 18:22:00,35.0,28.0,-100.00,WSW,253,31.0,42.0,75,0.00,,,-99.99,,2013-03-13 00:22:00,
2013-03-12 18:33:00,35.0,27.0,-100.00,WSW,253,32.0,42.0,72,0.00,,,-99.99,,2013-03-13 00:33:00,
2013-03-12 18:42:00,36.0,27.0,-100.00,WSW,254,30.0,42.0,71,0.00,,,-99.99,,2013-03-13 00:42:00,
2013-03-12 18:52:00,35.0,27.0,-100.00,WSW,251,34.0,48.0,73,0.00,,,-99.99,,2013-03-13 00:52:00,
2013-03-12 19:02:00,35.0,28.0,-100.00,WSW,247,33.0,48.0,75,0.00,,,-99.99,,2013-03-13 01:02:00,
2013-03-12 19:12:00,35.0,28.0,-100.00,WSW,253,31.0,40.0,75,0.00,,,-99.99,,2013-03-13 01:12:00,
2013-03-12 19:22:00,35.0,27.0,-100.00,West,260,31.0,46.0,75,0.00,,,-99.99,,2013-03-13 01:22:00,
2013-03-12 19:32:00,35.0,27.0,-100.00,WSW,254,30.0,44.0,71,0.00,,,-99.99,,2013-03-13 01:32:00,
2013-03-12 19:42:00,35.0,27.0,-100.00,WSW,258,28.0,38.0,72,0.00,,,-99.99,,2013-03-13 01:42:00,
2013-03-12 19:52:00,35.0,27.0,-100.00,West,268,26.0,37.0,71,0.00,,,-99.99,,2013-03-13 01:52:00,
2013-03-12 20:02:00,35.0,27.0,-100.00,West,268,31.0,38.0,74,0.00,,,-99.99,,2013-03-13 02:02:00,
2013-03-12 20:12:00,35.0,26.0,-100.00,West,270,28.0,37.0,69,0.00,,,-99.99,,2013-03-13 02:12:00,
2013-03-12 20:22:00,34.0,26.0,-100.00,WSW,251,32.0,44.0,73,0.00,,,-99.99,,2013-03-13 02:22:00,
2013-03-12 20:32:00,34.0,26.0,-100.00,WSW,248,32.0,45.0,72,0.00,,,-99.99,,2013-03-13 02:32:00,
2013-03-12 20:42:00,34.0,26.0,-100.00,WSW,253,29.0,42.0,70,0.00,,,-99.99,,2013-03-13 02:42:00,
2013-03-12 20:52:00,34.0,26.0,-100.00,WSW,254,29.0,38.0,71,0.00,,,-99.99,,2013-03-13 02:52:00,
2013-03-12 21:02:00,34.0,26.0,-100.00,WSW,254,27.0,37.0,74,0.00,,,-99.99,,2013-03-13 03:02:00,
2013-03-12 21:12:00,34.0,27.0,-100.00,WSW,256,27.0,37.0,75,0.00,,,-99.99,,2013-03-13 03:12:00,
2013-03-12 21:22:00,33.0,27.0,-100.00,WSW,258,26.0,34.0,77,0.00,,,-99.99,,2013-03-13 03:22:00,
2013-03-12 21:32:00,33.0,27.0,-100.00,WSW,253,29.0,40.0,79,0.00,,,-99.99,,2013-03-13 03:32:00,
2013-03-12 21:42:00,33.0,27.0,-100.00,WSW,254,29.0,41.0,79,0.00,,,-99.99,,2013-03-13 03:42:00,
2013-03-12 21:52:00,34.0,27.0,-100.00,West,260,29.0,40.0,76,0.00,,,-99.99,,2013-03-13 03:52:00,
2013-03-12 22:02:00,34.0,27.0,-100.00,West,263,26.0,35.0,77,0.00,,,-99.99,,2013-03-13 04:02:00,
2013-03-12 22:13:00,34.0,27.0,-100.00,West,263,26.0,37.0,76,0.00,,,-99.99,,2013-03-13 04:13:00,
2013-03-12 22:22:00,34.0,27.0,-100.00,West,265,25.0,35.0,76,0.00,,,-99.99,,2013-03-13 04:22:00,
2013-03-12 22:32:00,34.0,27.0,-100.00,West,268,24.0,31.0,77,0.00,,,-99.99,,2013-03-13 04:32:00,
2013-03-12 22:42:00,34.0,27.0,-100.00,West,267,23.0,31.0,77,0.00,,,-99.99,,2013-03-13 04:42:00,
2013-03-12 22:52:00,35.0,26.0,-100.00,West,263,27.0,35.0,70,0.00,,,-99.99,,2013-03-13 04:52:00,
2013-03-12 23:02:00,35.0,26.0,-100.00,West,261,24.0,34.0,69,0.00,,,-99.99,,2013-03-13 05:02:00,
2013-03-12 23:12:00,35.0,26.0,-100.00,West,261,26.0,34.0,69,0.00,,,-99.99,,2013-03-13 05:12:00,
2013-03-12 23:22:00,35.0,26.0,-100.00,West,263,24.0,34.0,69,0.00,,,-99.99,,2013-03-13 05:22:00,
2013-03-12 23:32:00,35.0,26.0,-100.00,West,260,26.0,42.0,68,0.00,,,-99.99,,2013-03-13 05:32:00,
2013-03-12 23:42:00,35.0,26.0,-100.00,West,260,27.0,35.0,69,0.00,,,-99.99,,2013-03-13 05:42:00,
2013-03-12 23:52:00,35.0,26.0,-100.00,West,261,27.0,37.0,69,0.00,,,-99.99,,2013-03-13 05:52:00,